Regional Weather Roundup
Issued by NWS Jackson, KY

Home | Current Version | Previous Version | Text Only | Print | Product List | Glossary On
Versions: 1 2 3 4 5 6 7 8 9 10 11 12 13 14 15 16 17 18 19 20 21 22 23 24 25 26 27 28 29 30 31 32 33 34 35 36 37 38 39 40 41 42 43 44 45 46 47 48 49 50
000
ASUS43 KJKL 290219
RWRJKL

EAST KENTUCKY HOURLY WEATHER ROUNDUP
NATIONAL WEATHER SERVICE JACKSON KY
1000 PM EDT THU AUG 28 2014

NOTE: "FAIR" INDICATES FEW OR NO CLOUDS BELOW 12,000 FEET WITH
NO SIGNIFICANT WEATHER AND/OR OBSTRUCTIONS TO VISIBILITY.

* THESE REPORTS ARE NOT UNDER NWS QUALITY CONTROL AND MAY NOT
  REPORT WEATHER SUCH AS PRECIPITATION AND FOG.

KYZ079-080-083-085-087-088-110-112-115-119-120-290300
...EASTERN KENTUCKY...

CITY           SKY/WX    TMP DP  RH WIND       PRES   REMARKS
JACKSON        CLEAR     73  66  78 CALM      30.10R
LONDON         CLEAR     77  69  76 NE3       30.08R
SOMERSET*      CLEAR     77  68  73 CALM      30.07S
MONTICELLO*    PTCLDY    76  73  90 CALM      30.07R
WILLIAMSBURG*  CLEAR     75  72  88 NE5       30.07
MIDDLESBORO*   CLEAR     75  71  87 CALM      30.08R
HARLAN APT*    CLEAR     72  70  94 MISG      30.10R
BLACK MTN*       N/A     66  66 100 CALM        N/A
PIKEVILLE APT* CLEAR     72  68  88 NE5       30.11R
BIG SANDY*     CLEAR     71  67  89 NE6       30.11R
MOREHEAD APT*  PTCLDY    73  64  73 E6        30.11S
ASHLAND*       CLEAR     70  63  78 SE3       30.08R
$$

KYZ035-036-041-042-044-050-067-078-099-290300
...CENTRAL KENTUCKY...

CITY           SKY/WX    TMP DP  RH WIND       PRES   REMARKS
MT STERLING*   CLEAR     77  68  73 SE3       30.10R
FLEMING/MASON* CLEAR     72  63  73 E6        30.10R
DANVILLE*      CLEAR     73  68  83 CALM      30.08R
RICHMOND*      CLEAR     73  68  83 CALM      30.07R
LEXINGTON      CLEAR     78  68  71 E6        30.07R
FRANKFORT      CLEAR     78  69  73 NE3       30.06R
$$

KYZ091>093-OHZ055-061-077-WVZ005-015-034-035-042-290300
...SOUTHERN OHIO/WEST VIRGINIA...

CITY           SKY/WX    TMP DP  RH WIND       PRES   REMARKS
COVINGTON      PTCLDY    76  61  59 E9        30.08R
COLUMBUS       PTCLDY    70  58  65 E3        30.12R
DAYTON         CLEAR     71  61  70 E7        30.11S
WILMINGTON     CLEAR     68  61  78 E7        30.11R
HUNTINGTON     CLEAR     69  65  86 CALM      30.09R
CHARLESTON     CLEAR     69  66  90 CALM      30.10R
PINEVILLE*     CLEAR     69  69 100 MISG      30.18R FOG
BECKLEY        CLEAR     68  58  70 CALM      30.17R
BLUEFIELD      CLEAR     73  63  70 N3        30.19R
$$

VAZ002-007-008-TNZ017-027-036-066-071-290300
...SOUTHWEST VIRGINIA/EAST TENNESSEE...

CITY           SKY/WX    TMP DP  RH WIND       PRES   REMARKS
WISE*          CLEAR     70  64  83 CALM      30.19R
JONESVILLE*      N/A     72  72 100 CALM      30.11R
ABINGDON*      CLEAR     73  68  85 CALM      30.13R
BRISTOL        PTCLDY    76  68  76 CALM      30.09R
KNOXVILLE      PTCLDY    79  70  74 CALM      30.03R
OAK RIDGE      CLEAR     78  72  81 CALM      30.05R
CROSSVILLE     MOCLDY    74  69  85 CALM      30.10S
NASHVILLE      MOCLDY    78  72  81 W6        30.01R
$$

...KEY TO REMARKS...
VSB - VISIBILITY IN MILES
WCI - WIND CHILL INDEX
HX  - HEAT INDEX

$$


USA.gov is the U.S. government's official web portal to all federal, state and local government web resources and services.